Flag for Pakistan

Past Weather in Mirpur Khas, Sindh, Pakistan — Yesterday and Last 2 Weeks

Now
84 °F

Haze.


Feels Like: 96 °F
Forecast: 107 / 85 °F
Wind: 5 mph from South

Location: Nawabshah Airport
Current Time: Sep 21, 2020 at 6:54:21 am
Latest Report: Sep 21, 2020 at 6:00 am
Visibility: 2 mi
Pressure29.53 "Hg
Humidity: 84%
Dew Point: 79 °F
Location of Mirpur KhasLocation

Past Weather in Mirpur Khas — Graph

°F

Mirpur Khas Temperature Yesterday

Maximum temperature yesterday: 100 °F (at 4:00 pm)
Minimum temperature yesterday: 82 °F (at 7:00 am)
Average temperature yesterday: 91 °F

High & Low Weather Summary for the Past Weeks

 TemperatureHumidityPressure
High106 °F (Sep 17, 3:00 pm)100% (Sep 7, 5:00 am)29.71 "Hg (Sep 7, 5:00 am)
Low36 °F (Sep 7, 5:00 am)40% (Sep 11, 3:00 pm)29.50 "Hg (Sep 10, 5:00 pm)
Average91 °F60%29.59 "Hg
* Reported Sep 6 5:00 am — Sep 21 5:00 am, Mirpur Khas. Weather by CustomWeather, © 2020

Note: Actual official high and low records may vary slightly from our data, if they occured in-between our weather recording intervals... More about our weather records

Mirpur Khas Weather History for the Previous 24 Hours

Scroll right to see more
 ConditionsComfort  
Time TempWeatherWind HumidityBarometerVisibility
5:00 am
Mon, Sep 21
84 °FHaze.5 mph84%29.50 "Hg2 mi
4:00 am84 °FHaze.5 mph84%29.53 "Hg2 mi
3:00 am86 °FHaze.5 mph79%29.53 "Hg2 mi
2:00 am86 °FHaze.5 mph79%29.53 "Hg2 mi
1:00 am88 °FHaze.5 mph70%29.56 "Hg3 mi
12:00 am90 °FHaze.7 mph63%29.56 "Hg3 mi
11:00 pm
Sun, Sep 20
91 °FClear.7 mph59%29.56 "Hg3 mi
10:00 pm91 °FClear.7 mph59%29.56 "Hg4 mi
9:00 pm93 °FClear.5 mph56%29.53 "Hg4 mi
8:00 pm95 °FClear.5 mph53%29.53 "Hg4 mi
7:00 pm95 °FPassing clouds.7 mph50%29.53 "Hg4 mi
6:00 pm97 °FPassing clouds.7 mph44%29.53 "Hg4 mi
5:00 pm100 °FPassing clouds.5 mph40%N/A4 mi
4:00 pm100 °FPassing clouds.5 mph45%29.53 "Hg4 mi
2:00 pm99 °FPassing clouds.No wind47%29.56 "Hg4 mi
1:00 pm99 °FPassing clouds.7 mph47%29.59 "Hg4 mi
12:00 pm97 °FPassing clouds.5 mph53%29.59 "Hg4 mi
11:00 am95 °FPassing clouds.5 mph56%29.62 "Hg4 mi
10:00 am91 °FScattered clouds.7 mph63%29.62 "Hg4 mi
9:00 am88 °FWarm.9 mph70%29.62 "Hg4 mi
8:00 am84 °FHaze.7 mph79%29.59 "Hg3 mi
7:00 am82 °FHaze.5 mph84%29.56 "Hg2 mi
Weather by CustomWeather, © 2020

See weather overview